Flight Track Log - Related Links

Times and Time Zones

All times are in EDT time to prevent confusion due to time zone crossing. See the N53NW flight status page for this flight to view local times or setup timezone preferences in your user account.

Time Position Orientation Groundspeed Altitude Reporting Facility
EDT Latitude Longitude Course Direction KTS MPH feet Rate Location/Type
Thu 10:56:25 PM 35.1792 -91.7467 191° South 207 238 1,600  Level Memphis Center
Thu 10:57:14 PM 35.1267 -91.7586 191° South 230 265 3,700 2,379 Climbing Memphis Center
Thu 10:58:21 PM 35.0594 -91.8056 210° Southwest 260 299 6,200 2,211 Climbing Memphis Center
Thu 10:59:08 PM 35.0236 -91.8431 221° Southwest 257 296 7,900 2,299 Climbing Memphis Center
Thu 11:01:08 PM 34.9158 -91.9628 222° Southwest 262 302 12,600 2,400 Climbing Memphis Center
Thu 11:02:08 PM 34.8833 -92.0456 244° Southwest 268 308 15,100 2,500 Climbing Memphis Center
Thu 11:03:08 PM 34.8508 -92.1336 246° West 273 314 17,600 2,250 Climbing Memphis Center
Thu 11:04:08 PM 34.8183 -92.2164 244° Southwest 279 321 19,600 2,000 Climbing Memphis Center
Thu 11:05:08 PM 34.7858 -92.3017 245° Southwest 279 321 21,600 2,000 Climbing Memphis Center
Thu 11:06:08 PM 34.7531 -92.3894 246° West 279 321 23,600 2,000 Climbing Memphis Center
Thu 11:07:08 PM 34.7203 -92.4744 245° Southwest 279 321 25,600 2,000 Climbing Memphis Center
Thu 11:08:08 PM 34.6897 -92.5594 246° West 279 321 27,600 2,000 Climbing Memphis Center
Thu 11:09:08 PM 34.6569 -92.6419 244° Southwest 279 321 29,600 1,200 Climbing Memphis Center
Thu 11:10:08 PM 34.6261 -92.7244 246° West 274 315 30,000 200 Climbing Memphis Center
Thu 11:11:08 PM 34.5908 -92.8169 245° Southwest 287 330 30,000  Level Memphis Center
Thu 11:12:08 PM 34.5558 -92.9092 245° Southwest 299 344 30,000  Level Memphis Center
Thu 11:14:10 PM 34.4889 -93.0878 246° West 302 348 30,000  Level Fort Worth Center
Thu 11:15:10 PM 34.4525 -93.1828 245° Southwest 302 348 30,000  Level Fort Worth Center
Thu 11:16:10 PM 34.4161 -93.2750 244° Southwest 307 353 30,000  Level Fort Worth Center
Thu 11:17:10 PM 34.3814 -93.3672 245° Southwest 307 353 30,000  Level Fort Worth Center
Thu 11:18:10 PM 34.3450 -93.4619 245° Southwest 307 353 30,000  Level Fort Worth Center
Thu 11:19:10 PM 34.3103 -93.5567 246° West 307 353 30,000  Level Fort Worth Center
Thu 11:20:10 PM 34.2861 -93.6558 254° West 307 353 30,000  Level Fort Worth Center
Thu 11:21:10 PM 34.2578 -93.7550 251° West 312 359 30,000  Level Fort Worth Center
Thu 11:22:10 PM 34.2314 -93.8517 252° West 312 359 30,000  Level Fort Worth Center
Thu 11:23:10 PM 34.2069 -93.9506 253° West 307 353 30,000  Level Fort Worth Center
Thu 11:24:10 PM 34.1806 -94.0494 252° West 307 353 30,000  Level Fort Worth Center
Thu 11:25:10 PM 34.1517 -94.1486 251° West 307 353 30,000  Level Fort Worth Center
Thu 11:26:10 PM 34.1250 -94.2447 251° West 307 353 30,000  Level Fort Worth Center
Thu 11:27:10 PM 34.0964 -94.3461 251° West 307 353 30,000  Level Fort Worth Center
Thu 11:28:10 PM 34.0714 -94.4397 252° West 312 359 30,000  Level Fort Worth Center
Thu 11:29:10 PM 34.0425 -94.5386 251° West 305 351 30,000  Level Fort Worth Center
Thu 11:30:10 PM 34.0153 -94.6372 252° West 310 357 30,000  Level Fort Worth Center
Thu 11:31:10 PM 33.9883 -94.7383 252° West 310 357 30,000  Level Fort Worth Center
Thu 11:32:10 PM 33.9611 -94.8367 252° West 310 357 30,000  Level Fort Worth Center
Thu 11:33:10 PM 33.9319 -94.9378 251° West 310 357 30,000  Level Fort Worth Center
Thu 11:34:10 PM 33.9047 -95.0361 252° West 310 357 30,000  Level Fort Worth Center
Thu 11:35:10 PM 33.8753 -95.1344 250° West 310 357 30,000  Level Fort Worth Center
Thu 11:36:10 PM 33.8478 -95.2328 251° West 310 357 30,000 -50 Level Fort Worth Center
Thu 11:37:10 PM 33.8203 -95.3308 251° West 310 357 29,900 -850 Descending Fort Worth Center
Thu 11:38:10 PM 33.7903 -95.4267 249° West 310 357 28,300 -1,550 Descending Fort Worth Center
Thu 11:39:10 PM 33.7647 -95.5197 252° West 305 351 26,800 -1,550 Descending Fort Worth Center
Thu 11:40:10 PM 33.7369 -95.6150 251° West 305 351 25,200 -1,550 Descending Fort Worth Center
Thu 11:41:10 PM 33.7111 -95.7106 252° West 305 351 23,700 -1,500 Descending Fort Worth Center
Thu 11:42:10 PM 33.6831 -95.8058 251° West 305 351 22,200 -1,500 Descending Fort Worth Center
Thu 11:43:10 PM 33.6550 -95.9036 251° West 305 351 20,700 -1,550 Descending Fort Worth Center
Thu 11:44:10 PM 33.6231 -96.0092 250° West 305 351 19,100 -1,450 Descending Fort Worth Center
Thu 11:45:10 PM 33.5989 -96.0942 251° West 305 351 17,800 -1,450 Descending Fort Worth Center
Thu 11:46:10 PM 33.5664 -96.1994 250° West 305 351 16,200 -1,500 Descending Fort Worth Center
Thu 11:47:10 PM 33.5422 -96.2819 251° West 299 344 14,800 -1,500 Descending Fort Worth Center
Thu 11:48:10 PM 33.4992 -96.3747 241° Southwest 291 335 13,200 -1,500 Descending Fort Worth Center
Thu 11:49:10 PM 33.4389 -96.4253 215° Southwest 291 335 11,800 -1,048 Descending Fort Worth Center
Thu 11:50:16 PM 33.3500 -96.5000 215° Southwest 294 338 11,000 -381 Descending Dallas / Fort Worth TRACON
Thu 11:51:16 PM 33.3000 -96.5500 220° Southwest 287 330 11,000  Level Dallas / Fort Worth TRACON
Thu 11:52:04 PM 33.2500 -96.6000 220° Southwest 286 329 11,000 -471 Level Dallas / Fort Worth TRACON
Thu 11:52:58 PM 33.1833 -96.6500 212° Southwest 287 330 10,200 -1,571 Descending Dallas / Fort Worth TRACON
Thu 11:54:10 PM 33.1167 -96.7000 212° Southwest 254 292 7,700 -2,000 Descending Dallas / Fort Worth TRACON
Thu 11:55:04 PM 33.0667 -96.7500 220° Southwest 258 297 6,000 -1,895 Descending Dallas / Fort Worth TRACON
Thu 11:56:04 PM 33.0000 -96.8000 212° Southwest 260 299 4,100 -1,000 Descending Dallas / Fort Worth TRACON
Thu 11:57:04 PM 32.9500 -96.8500 220° Southwest 237 273 4,000 -550 Descending Dallas / Fort Worth TRACON
Thu 11:58:04 PM 32.8833 -96.8833 203° Southwest 245 282 3,000 -500 Descending Dallas / Fort Worth TRACON
Thu 11:59:04 PM 32.8333 -96.8833 180° South 218 251 3,000 -500 Level Dallas / Fort Worth TRACON
Fri 12:00:04 AM 32.7833 -96.9167 209° Southwest 213 245 2,000 -450 Descending Dallas / Fort Worth TRACON
Fri 12:01:04 AM 32.7500 -96.9500 220° Southwest 185 213 2,100 100 Climbing Dallas / Fort Worth TRACON

Login

Don't have an account? Register now (free) for customized features, flight alerts, and more!